sat.trackr.live / text

‹ back to catalog

STARLINK-31434

NORAD 59215 · 2024-046Q

PAYLOAD ACTIVE UNKNOWN

§ Identity

Operator
Country
US
Launch date
2024-03-11
Launch site
AFWTR
Launch vehicle
Mass (kg)
RCS (m²)

Purposes: comms

External: N2YO · Heavens-Above · Gunter

§ Orbital elements

Epoch: 2026-09-20T21:30:31.628160Z

Period
93.85 min
Inclination
53.1613°
Eccentricity
0.0001628
Mean motion
15.34393184 rev/d
Perigee alt
461.6 km
Apogee alt
463.8 km
Semi-major
6,840.9 km
B*
4.7776e-5
RAAN
323.8697°
Arg perigee
72.1820°
Mean anomaly
287.9360°
Rev number
14,299

§ Raw data

STARLINK-314341 59215U 24046Q   26263.89619940  .00001238  00000+0  47776-4 0  99912 59215  53.1613 323.8697 0001628  72.1820 287.9360 15.34393184142999

JSON: /api/v1/satellites/59215 · /tle

For live sub-satellite position, see the globe view (requires WebGL).

§ Visibility from observer

Set your observer location to see the next 7 days of passes ≥ 10°. The values pass through the URL so the page stays shareable.

No JS? Fill the form by hand. The geolocation button needs JavaScript.